STARLINK-35487, 66262

Orbit data source: Space-Track

STARLINK-35487, 66262 is a payload satellite owned by SpaceX/Seattle (US) in LEO that was launched on Wed, 29 Oct 2025 UTC via an FALCON 9 launch vehicle from the Air Force Eastern Test Range (AFETR). Payload-class satellites include a variety of spacecraft equipped with specific instruments for various scientific and technological missions. These include communications satellites like Starlink; space stations such as the ISS; scientific satellites like the Hubble; Earth observation satellites from companies like Planet Labs, Umbra, and HawkEye 360; GPS; miniature CubeSats for education and research; and military/defense satellites.

Loading next visibility...
Identifier
66262, 2025-245AE
Orbit
LEO
Country
Flag of USUS
Related business
Manufacturer
SpaceX/Seattle
Mission
Operational Commercial Communications
Bus & Motor
STARLINK V2MO, Unknown motor
Mass
575 kg wet, ~530 kg dry
Launch date (UTC)
2025-10-29 (8 months ago)
Launch vehicle
FALCON 9
Launch site
Air Force Eastern Test Range (AFETR)
Object type
Payload
Rocket body
Debris
Shape & HBR
Box + 2 Pan, 17.7 m
Radar Cross Section
36.964 m², Large (>1 m²)

Expand to show TLE details & history
Last TLE update: 11 hours ago

TLE from 11 hours ago
0 STARLINK-35487
1 66262U 25245AE  26171.38359308  .00011840  00000-0  39247-3 0  9998
2 66262  53.1613 166.5806 0001164  70.0234 290.0893 15.31718170 36939
Epoch: 2026-06-20T09:12Z
TLE epoch observation values (Epoch: 2026-06-20T09:12:22.442Z)
Latitude
0.00002°
Longitude
119.88811°
Altitude
471.313 km
Speed
7.632 km/s
True Right ascension
11h 06m 19s
True Declination
0° 00' 00"
Sunlit
Object was in daylight at epoch
Visualization orbit readout
Latitude
Unknown
Longitude
Unknown
Altitude
Unknown
Speed
Unknown
Apparent Right ascension
Unknown
Apparent Declination
Unknown
Sunlit
N/A
Visualization observer readout
Local Sidereal Time
07:15:51
Azimuth
Unknown
Elevation
Unknown
Doppler factor
Unknown
Orbital elements
Apogee altitude
471.739 km
Perigee altitude
470.145 km
Semi-major axis
6,849.079 km
Eccentricity
0.00012
Inclination
53.1613°
RAAN
166.5806°
Arg. of periapsis
70.0234°
True anomaly
290.07677°
Mean anomaly
290.0893°
Eccentric anomaly
290.08304°
Mean motion
3.82908 °/min
Orbital period
94.02 mins
BSTAR
0.00039247
Loading maneuver chart data...
Computing Atmospheric mass density...
Loading historical data...
Loading historical data...
Loading historical data...
Loading historical data...
Loading historical data...
Loading historical data...
Loading historical data...

Documentation

Showing up to 5 results
|